EN

Hourly Weather Puducherry

Today, 27 November, Friday

Time Temperature Precipitation Wind Pressure Humidity
00:00 +25°C° 0 mm 4 mps 755 mmHg 82%
01:00 +24°C° 0 mm 3 mps 755 mmHg 83%
02:00 +24°C° 0 mm 2 mps 754 mmHg 84%
03:00 +24°C° 0 mm 3 mps 755 mmHg 84%
04:00 +23°C° 0 mm 4 mps 755 mmHg 83%
05:00 +25°C° 0 mm 4 mps 755 mmHg 82%
06:00 +25°C° 0 mm 4 mps 756 mmHg 81%
07:00 +26°C° 0 mm 4 mps 757 mmHg 80%
08:00 +26°C° 0 mm 3 mps 757 mmHg 79%
09:00 +27°C° 0 mm 4 mps 757 mmHg 74%
10:00 +28°C° 0 mm 4 mps 757 mmHg 70%
11:00 +29°C° 0 mm 4 mps 757 mmHg 66%
12:00 +30°C° 0 mm 4 mps 756 mmHg 65%
13:00 +30°C° 0 mm 4 mps 755 mmHg 64%
14:00 +30°C° 0 mm 4 mps 755 mmHg 63%
15:00 +29°C° 0 mm 4 mps 755 mmHg 67%
16:00 +28°C° 0 mm 4 mps 755 mmHg 72%
17:00 +27°C° 0 mm 4 mps 756 mmHg 77%
18:00 +27°C° 0 mm 3 mps 756 mmHg 79%
19:00 +26°C° 0 mm 3 mps 757 mmHg 80%
20:00 +25°C° 0 mm 3 mps 758 mmHg 82%
21:00 +25°C° 0 mm 3 mps 758 mmHg 83%
22:00 +25°C° 0 mm 3 mps 758 mmHg 83%
23:00 +25°C° 0 mm 3 mps 758 mmHg 83%

Tomorrow, 28 November, Saturday

Time Temperature Precipitation Wind Pressure Humidity
00:00 +24°C° 0 mm 3 mps 757 mmHg 83%
01:00 +24°C° 0 mm 3 mps 757 mmHg 83%
02:00 +24°C° 0 mm 3 mps 756 mmHg 83%
03:00 +24°C° 0 mm 3 mps 757 mmHg 84%
04:00 +22°C° 0 mm 3 mps 757 mmHg 86%
05:00 +22°C° 0 mm 3 mps 757 mmHg 87%
06:00 +24°C° 0 mm 3 mps 758 mmHg 85%
07:00 +25°C° 0 mm 3 mps 759 mmHg 83%
08:00 +26°C° 0 mm 3 mps 759 mmHg 81%
09:00 +28°C° 0 mm 2 mps 759 mmHg 76%
10:00 +29°C° 0 mm 2 mps 759 mmHg 70%
11:00 +30°C° 0 mm 2 mps 759 mmHg 64%
12:00 +31°C° 0 mm 2 mps 758 mmHg 63%
13:00 +31°C° 0 mm 2 mps 757 mmHg 62%
14:00 +31°C° 0 mm 3 mps 756 mmHg 62%
15:00 +30°C° 0 mm 3 mps 756 mmHg 67%
16:00 +29°C° 0 mm 3 mps 756 mmHg 73%
17:00 +28°C° 0 mm 4 mps 757 mmHg 79%
18:00 +27°C° 0 mm 4 mps 757 mmHg 80%
19:00 +27°C° 0 mm 3 mps 758 mmHg 82%
20:00 +26°C° 0 mm 3 mps 759 mmHg 83%
21:00 +26°C° 0 mm 3 mps 759 mmHg 85%
22:00 +26°C° 0 mm 3 mps 758 mmHg 86%
23:00 +26°C° 0 mm 3 mps 758 mmHg 88%

Day after tomorrow, 29 November, Sunday

Time Temperature Precipitation Wind Pressure Humidity
00:00 +26°C° 0.2 mm 3 mps 758 mmHg 88%
01:00 +25°C° 0.2 mm 3 mps 757 mmHg 89%
02:00 +25°C° 0.2 mm 3 mps 757 mmHg 90%
03:00 +25°C° 0.2 mm 4 mps 757 mmHg 91%
04:00 +25°C° 0.2 mm 4 mps 757 mmHg 92%
05:00 +25°C° 0.2 mm 4 mps 757 mmHg 92%
06:00 +26°C° 0.2 mm 4 mps 758 mmHg 89%
07:00 +27°C° 0.2 mm 4 mps 759 mmHg 86%
08:00 +28°C° 0.2 mm 5 mps 759 mmHg 83%
09:00 +29°C° 0.6 mm 5 mps 759 mmHg 79%
10:00 +30°C° 0.6 mm 5 mps 759 mmHg 76%
11:00 +32°C° 0.6 mm 6 mps 758 mmHg 72%
12:00 +32°C° 0.4 mm 6 mps 758 mmHg 72%
13:00 +32°C° 0.4 mm 6 mps 757 mmHg 72%
14:00 +32°C° 0.4 mm 7 mps 756 mmHg 72%
15:00 +30°C° 0.5 mm 6 mps 756 mmHg 76%
16:00 +29°C° 0.5 mm 6 mps 757 mmHg 80%
17:00 +28°C° 0.5 mm 6 mps 757 mmHg 84%
18:00 +28°C° 1.2 mm 6 mps 758 mmHg 85%
19:00 +27°C° 1.2 mm 6 mps 758 mmHg 87%
20:00 +27°C° 1.2 mm 7 mps 759 mmHg 88%
21:00 +27°C° 0.3 mm 6 mps 758 mmHg 89%
22:00 +26°C° 0.3 mm 6 mps 758 mmHg 90%
23:00 +26°C° 0.3 mm 5 mps 758 mmHg 91%

30 November, Monday

Time Temperature Precipitation Wind Pressure Humidity
00:00 +26°C° 0.2 mm 5 mps 758 mmHg 92%
01:00 +26°C° 0.2 mm 5 mps 757 mmHg 93%
02:00 +25°C° 0.2 mm 5 mps 757 mmHg 93%
03:00 +25°C° 0.2 mm 5 mps 757 mmHg 93%
04:00 +25°C° 0.2 mm 5 mps 757 mmHg 93%
05:00 +24°C° 0.2 mm 6 mps 757 mmHg 93%
06:00 +26°C° 0.2 mm 6 mps 757 mmHg 91%
07:00 +27°C° 0.2 mm 6 mps 758 mmHg 88%
08:00 +27°C° 0.2 mm 6 mps 758 mmHg 85%
09:00 +28°C° 0.3 mm 7 mps 758 mmHg 81%
10:00 +30°C° 0.3 mm 7 mps 758 mmHg 77%
11:00 +32°C° 0.3 mm 8 mps 758 mmHg 73%
12:00 +32°C° 0 mm 8 mps 757 mmHg 71%
13:00 +32°C° 0 mm 8 mps 756 mmHg 68%
14:00 +32°C° 0 mm 8 mps 756 mmHg 66%
15:00 +31°C° 0.1 mm 8 mps 756 mmHg 70%
16:00 +29°C° 0.1 mm 8 mps 756 mmHg 75%
17:00 +28°C° 0.1 mm 7 mps 757 mmHg 79%
18:00 +28°C° 0.3 mm 7 mps 757 mmHg 80%
19:00 +27°C° 0.3 mm 7 mps 758 mmHg 80%
20:00 +27°C° 0.3 mm 7 mps 758 mmHg 81%
21:00 +27°C° 0.4 mm 6 mps 758 mmHg 82%
22:00 +26°C° 0.4 mm 6 mps 758 mmHg 84%
23:00 +26°C° 0.4 mm 6 mps 758 mmHg 85%

1 December, Tuesday

Time Temperature Precipitation Wind Pressure Humidity
00:00 +26°C° 0.6 mm 6 mps 758 mmHg 86%
01:00 +26°C° 0.6 mm 6 mps 757 mmHg 86%
02:00 +24°C° 0.6 mm 6 mps 757 mmHg 87%
03:00 +24°C° 0.4 mm 7 mps 757 mmHg 87%
04:00 +24°C° 0.4 mm 7 mps 757 mmHg 86%
05:00 +24°C° 0.4 mm 7 mps 757 mmHg 86%
06:00 +26°C° 0.3 mm 8 mps 757 mmHg 84%
07:00 +27°C° 0.3 mm 8 mps 758 mmHg 81%
08:00 +28°C° 0.3 mm 8 mps 758 mmHg 78%
09:00 +29°C° 0.9 mm 8 mps 758 mmHg 77%
10:00 +29°C° 0.9 mm 8 mps 758 mmHg 75%
11:00 +31°C° 0.9 mm 9 mps 758 mmHg 73%
12:00 +31°C° 0.9 mm 9 mps 757 mmHg 74%
13:00 +31°C° 0.9 mm 9 mps 756 mmHg 74%
14:00 +31°C° 0.9 mm 9 mps 756 mmHg 74%
15:00 +29°C° 0.5 mm 9 mps 756 mmHg 78%
16:00 +28°C° 0.5 mm 9 mps 756 mmHg 81%
17:00 +28°C° 0.5 mm 8 mps 756 mmHg 84%
18:00 +27°C° 0.6 mm 8 mps 757 mmHg 86%
19:00 +27°C° 0.6 mm 8 mps 757 mmHg 87%
20:00 +26°C° 0.6 mm 8 mps 758 mmHg 89%
21:00 +26°C° 0.8 mm 8 mps 758 mmHg 88%
22:00 +26°C° 0.8 mm 8 mps 758 mmHg 88%
23:00 +26°C° 0.8 mm 8 mps 758 mmHg 88%

2 December, Wednesday

Time Temperature Precipitation Wind Pressure Humidity
00:00 +26°C° 1.3 mm 8 mps 757 mmHg 89%
01:00 +26°C° 1.3 mm 7 mps 757 mmHg 89%
02:00 +26°C° 1.3 mm 7 mps 756 mmHg 90%
03:00 +26°C° 1.5 mm 7 mps 756 mmHg 90%
04:00 +26°C° 1.5 mm 7 mps 756 mmHg 91%
05:00 +26°C° 1.5 mm 7 mps 757 mmHg 91%
06:00 +26°C° 1 mm 7 mps 757 mmHg 90%
07:00 +27°C° 1 mm 7 mps 758 mmHg 88%
08:00 +27°C° 1 mm 7 mps 758 mmHg 87%
09:00 +28°C° 1.5 mm 7 mps 758 mmHg 86%
10:00 +28°C° 1.5 mm 7 mps 758 mmHg 84%
11:00 +29°C° 1.5 mm 7 mps 758 mmHg 83%
12:00 +28°C° 1.6 mm 6 mps 758 mmHg 86%
13:00 +27°C° 1.6 mm 6 mps 757 mmHg 89%
14:00 +27°C° 1.6 mm 5 mps 756 mmHg 92%
15:00 +27°C° 0.5 mm 5 mps 756 mmHg 92%
16:00 +27°C° 0.5 mm 4 mps 756 mmHg 92%
17:00 +27°C° 0.5 mm 4 mps 756 mmHg 92%
18:00 +26°C° 0 mm 4 mps 757 mmHg 92%
19:00 +26°C° 0 mm 3 mps 757 mmHg 93%
20:00 +26°C° 0 mm 3 mps 758 mmHg 93%
21:00 +26°C° 0.2 mm 3 mps 757 mmHg 93%
22:00 +26°C° 0.2 mm 3 mps 757 mmHg 93%
23:00 +26°C° 0.2 mm 3 mps 757 mmHg 94%
Show more